Stats Admin Help
All missions My missions

Missions (136)

Mission Name Map Length Players Date Played
LTOP_Lions_Den_1_v3 MALDEN 7456 2 hours, 4 minutes 13 1513362677 Friday at 7:31 PM
LTPD_DANGER_CLOSE_2_v3 MALDEN 1057 17 minutes 13 1513361285 Friday at 7:08 PM
LTOP_JollyJungle_v1 LINGOR3 1443 24 minutes 6 1513359082 Friday at 6:31 PM
LTOP_Get_on_the_Floor_v3 MALDEN 8160 2 hours, 16 minutes 15 1512758911 8th December 2017
LTPD_Post-Natale_Depressie_v2 TAKISTAN 2342 39 minutes 12 1512756426 8th December 2017
LTFUN_Tripping_balls_v3 TANOA 1863 31 minutes 16 1512160485 1st December 2017
LTOP_Barrelcatcher_v5 TANOA 6713 1 hour, 51 minutes 16 1512153665 1st December 2017
LTPD_Into_The_Barrel_v3 TANOA 1919 31 minutes 15 1512151481 1st December 2017
LTFUN_Zeus_Template_WLD_v1 CHERNARUS 19993 5 hours, 33 minutes 6 1511896859 28th November 2017
LTFUN_Zeus_Template_WLD_v1 TANOA 7215 2 hours 6 1511889539 28th November 2017
LTOP_JollyJungle_v1 LINGOR3 7124 1 hour, 58 minutes 14 1511548446 24th November 2017
LTPD_TownSweep_v7 LINGOR3 1204 20 minutes 10 1511546850 24th November 2017
LTOP_Heavy_Rain_v1 NAPF 2575 42 minutes 17 1510943862 17th November 2017
LTPD_Tomb_RaiderV2 TANOA 1770 29 minutes 15 1510941799 17th November 2017
dm15_tequila ALTIS 290 4 minutes 4 1510940363 17th November 2017
LTPC_Kings_Ruse_vFinal3 SARA_DBE1 2271 37 minutes 5 1510682109 14th November 2017
LTOP_Hooggeschut_v6 LINGOR3 7771 2 hours, 9 minutes 18 1510339253 10th November 2017
LTPD_Calvin_and_Hobbes_v1 NOE 1594 26 minutes 16 1510337033 10th November 2017
LTOP_Hooggeschut_v3 LINGOR3 1357 22 minutes 4 1510252045 9th November 2017
LTPC_Kings_Ruse_vFinal3 SARA_DBE1 1637 27 minutes 4 1510078150 7th November 2017
LTPC_Kings_Ruse_vFinal3 SARA_DBE1 8925 2 hours, 28 minutes 5 1509992591 6th November 2017
LTPC_Kings_Ruse_vFinal2 SARA_DBE1 16851 4 hours, 40 minutes 8 1509817488 4th November 2017
LTOP_Duurzaam_Schild_P1_v5 TAKISTAN 218 3 minutes 11 1509733672 3rd November 2017
LTPD_Time_For_Punishment_v2 EDEN 691 11 minutes 11 1509732315 3rd November 2017
LTPC_Kings_Ruse_vFinal SARA_DBE1 1168 19 minutes 9 1509473145 31st October 2017
LTPC_Kings_Ruse_vFinal SARA_DBE1 2252 37 minutes 4 1509468512 31st October 2017
LTPD_spais_vs_mercs_v2 MALDEN 2317 38 minutes 12 1509128033 27th October 2017
LT_TownZweep_v1 LINGOR3 1580 26 minutes 13 1509126341 27th October 2017
LTOP_nightmare_before_XmasV2 NAPF 4692 1 hour, 18 minutes 14 1509121232 27th October 2017
LT_TownZweep_v1 LINGOR3 970 16 minutes 13 1509120139 27th October 2017
LTOP_No_Mercy_P03_v2 TAKISTAN 5578 1 hour, 32 minutes 13 1508517072 20th October 2017
LTPD_TownSweep_v7 LINGOR3 483 8 minutes 10 1508515454 20th October 2017
LTOP_Jungle_Fever_Part1_V3 TANOA 929 15 minutes 11 1507913943 13th October 2017
LTPD_Gebroken_Vleugels_v3 ZARGABAD 2613 43 minutes 12 1507910904 13th October 2017
LTOP_YoghurtShaker4_V1 STRATIS 5832 1 hour, 37 minutes 13 1507308109 6th October 2017
LTPD_TownSweep_v7 NAPF 1154 19 minutes 12 1507306777 6th October 2017
LTPD_TownSweep_v7 NAPF 256 4 minutes 11 1507306024 6th October 2017
LTOP_Slangenland_v2 NAPF 6471 1 hour, 47 minutes 12 1506703599 29th September 2017
LTPD_TownSweep_v7 TAKISTAN 2147 35 minutes 12 1506700954 29th September 2017
LTOP_Mask255_v1 LINGOR3 5496 1 hour, 31 minutes 11 1506098542 22nd September 2017
LTPD_Spiders_v2 MALDEN 1491 24 minutes 9 1506096767 22nd September 2017
LTPD_Oily_Basin_v7 SHAPUR_BAF 297 4 minutes 9 1506096365 22nd September 2017
LTFUN_Team_Effort_v2 CAIN 1393 23 minutes 9 1505502604 15th September 2017
LTFUN_Team_Effort_v2 CAIN 94 1 minute 9 1505502470 15th September 2017
LTFUN_Team_Effort_v2 CAIN 830 13 minutes 9 1505501373 15th September 2017
LTPD_TVT_OperationEMP_v3 TAKISTAN 1961 32 minutes 14 1505499218 15th September 2017
LTPD_DANGER_CLOSE_v4 ALTIS 1668 27 minutes 15 1505497199 15th September 2017
LTOP_SnowForceOne_v2 NAPFWINTER 3372 56 minutes 16 1505493434 15th September 2017
LTPD_KratBrekers_v1 ISLADUALA3 1695 28 minutes 16 1505491384 15th September 2017
SL_Roadblock_Duty_v09 TAKISTAN 1373 22 minutes 4 1505233079 12th September 2017
LTOP_YoghurtShaker3_V3 STRATIS 6344 1 hour, 45 minutes 12 1504888764 8th September 2017
LTPD_Spiders_v2 MALDEN 1561 26 minutes 9 1504886979 8th September 2017
exp_m07 TANOA 26063 7 hours, 14 minutes 4 1504633988 5th September 2017
exp_m06 TANOA 2757 45 minutes 4 1504631226 5th September 2017
exp_m05 TANOA 2126 35 minutes 4 1504629094 5th September 2017
LTOP_Narly_Narcotics_v1 LINGOR3 2905 48 minutes 13 1504283351 1st September 2017
LTPD_Escape_from_Lenzburg_v11 NAPF 1516 25 minutes 12 1504281745 1st September 2017
co10_Escape_Vanilla_Apex LINGOR3 2407 40 minutes 4 1504026460 29th August 2017
LTPD_KratBrekers_v1 ISLADUALA3 2010 33 minutes 11 1503683682 25th August 2017
LTOP_SpecDem_v2 TANOA 4695 1 hour, 18 minutes 12 1503678704 25th August 2017
LTPD_Tomb_RaiderV1 TANOA 1412 23 minutes 11 1503677012 25th August 2017
exp_m04 TANOA 394 6 minutes 4 1503425190 22nd August 2017
exp_m03 TANOA 1141 19 minutes 4 1503423862 22nd August 2017
exp_m02 TANOA 1320 22 minutes 4 1503421872 22nd August 2017
LTPD_Zombie_Escape_Isla_2_v2 ISLADUALA3 3646 1 hour 7 1503081278 18th August 2017
LTOP_Zamirah_v3 MALDEN 6334 1 hour, 45 minutes 9 1503074132 18th August 2017
LTPD_SAD_Panda_v2 CHERNARUS 1640 27 minutes 8 1503072274 18th August 2017
[LTFUN]After_Tomorrow_V3 CHERNARUS_SUMMER 7450 2 hours, 4 minutes 7 1502811509 15th August 2017
co10_Escape_CUP_USMC_VS_RU CHERNARUS_SUMMER 929 15 minutes 10 1502477730 11th August 2017
co10_Escape_CUP_USMC_VS_RU MALDEN 315 5 minutes 10 1502477324 11th August 2017
LTPD_Civil_Defence_v4 ZARGABAD 1579 26 minutes 12 1502475009 11th August 2017
LTOP_Here_be_Dragons_v3 MBG_CELLE2 5900 1 hour, 38 minutes 13 1502468828 11th August 2017
LTPD_La_Bin_Eden_v2 MALDEN 1291 21 minutes 13 1502467335 11th August 2017
LTFUN_Zeus_Template_WLD_v1 CHERNARUS 5042 1 hour, 24 minutes 9 1502209343 8th August 2017
LTOP_Water_is_Nat_v2 NAPF 6133 1 hour, 42 minutes 14 1501866006 4th August 2017
LTPD_spais_vs_mercs_v2 MALDEN 1683 28 minutes 12 1501862621 4th August 2017
LTFUN_Zeus_Template_DST_v1 TAKISTAN 4766 1 hour, 19 minutes 4 1501602935 1st August 2017
LTPD_Prove_Yourself_v2 PROVINGGROUNDS_PMC 80 1 minute 8 1501267442 28th July 2017
LTPD_Passing_Through_v3 SARA 1819 30 minutes 11 1501265553 28th July 2017
LTOP_Red_Snow_v5 NAPFWINTER 5266 1 hour, 27 minutes 12 1501259815 28th July 2017
LTPD_TownSweep_v7 TAKISTAN 1886 31 minutes 10 1501257713 28th July 2017
LTFUN_Zeus_Template_DST_v1 TAKISTAN 7384 2 hours, 3 minutes 5 1500998781 25th July 2017
LTOP_Bike_for_business_v2 TANOA 1213 20 minutes 8 1500654247 21st July 2017
LTPD_Zombie_Escape_Isla_2_v2 ISLADUALA3 1073 17 minutes 8 1500653044 21st July 2017
LTOP_Zeldzaam_Geschenk_v2 NAPF 5297 1 hour, 28 minutes 14 1500049867 14th July 2017
LTPD_spais_vs_mercs_v2 MALDEN 1576 26 minutes 14 1500048132 14th July 2017
LTPD_Propylon_Indices_v2 NAPFWINTER 1101 18 minutes 3 1499800091 11th July 2017
LTPD_Civil_Defence_v4 ZARGABAD 345 5 minutes 4 1499799691 11th July 2017
LTPD_spais_vs_mercs_v1 MALDEN 329 5 minutes 5 1499798632 11th July 2017
LT_Zeus_Template_NLDW_v1 NAPF 5972 1 hour, 39 minutes 9 1499791271 11th July 2017
LTOP_Poedersuiker_Shakedown_V2 TANOA 1802 30 minutes 15 1499445130 7th July 2017
LTPD_Spiders_v2 MALDEN 1536 25 minutes 15 1499443402 7th July 2017
LTOP_Dosh_Dosh_Dosh_v1 MALDEN 6659 1 hour, 50 minutes 13 1498840162 30th June 2017
LTPD_Tomb_RaiderV1 TANOA 1402 23 minutes 13 1498838554 30th June 2017
LTOP_Equinox_v1 MALDEN 6623 1 hour, 50 minutes 11 1498236690 23rd June 2017
LTPD_Escape_from_Lenzburg_v11 NAPF 2343 39 minutes 11 1498233939 23rd June 2017
LTOP_Silent_Water_v2 ALTIS 5584 1 hour, 33 minutes 13 1497631868 16th June 2017
LTPD_Prove_Yourself_v2 PROVINGGROUNDS_PMC 864 14 minutes 13 1497630740 16th June 2017
LTPD_ModderbadV3 TANOA 1451 24 minutes 13 1497629121 16th June 2017
LTOP_YoghurtShaker2_V1 STRATIS 10 10 1497025735 9th June 2017
LTPD_Drugs_Raid_v2 ISLADUALA3 1247 20 minutes 10 1497024332 9th June 2017
LTPD_DANGER_CLOSE_v4 ALTIS 1420 23 minutes 10 1496427787 2nd June 2017
LTPD_HVT_Escort_Service_v3 ZARGABAD 850 14 minutes 10 1496426801 2nd June 2017
LTPD_HVT_Escort_Service_v3 ZARGABAD 275 4 minutes 10 1496426395 2nd June 2017
LTOP_YoghurtShaker_V2 STRATIS 5030 1 hour, 23 minutes 10 1496421087 2nd June 2017
LTPD_Freeport_7_v3 MBG_CELLE2 1069 17 minutes 10 1496419602 2nd June 2017
LTFUN_A_trip_too_far_v3 ISLADUALA3 1054 17 minutes 9 1495829590 26th May 2017
LTOP_GitSum_v2-minder MBG_CELLE2 6061 1 hour, 41 minutes 11 1495823437 26th May 2017
LTPD_Bananadeal_gone_bad_v5 WOODLAND_ACR 1870 31 minutes 10 1495821454 26th May 2017
LTOP_Full_Metal_Assault_v2 ALTIS 2926 48 minutes 13 1495219388 19th May 2017
LTPD_DANGER_CLOSE_v3 ALTIS 1705 28 minutes 13 1495217093 19th May 2017
LTOP_Trainingsgebied_v1 ALTIS 8644 2 hours, 24 minutes 5 1494961518 16th May 2017
LTOP_Coastal_Roadtrip_v2 SARA_DBE1 6086 1 hour, 41 minutes 13 1494613852 12th May 2017
LTPD_Romeo_v2 ISLADUALA3 159 2 minutes 9 1494612151 12th May 2017
LTPD_Midnight_Raid_v1 CLAFGHAN 1263 21 minutes 9 1494015670 5th May 2017
LTOP_Zand_en_Toeval_v4 TAKISTAN 4631 1 hour, 17 minutes 14 1494010686 5th May 2017
LTPD_Laatste_Hoop_v1 ISLADUALA3 3242 54 minutes 13 1494007235 5th May 2017
LTOP_Rupsen_op_Banden_v2 MBG_CELLE2 1867 31 minutes 15 1493404842 28th April 2017
LTPD_Post-Natale_Depressie_v2 TAKISTAN 2264 37 minutes 15 1493402309 28th April 2017
LTOP_Sky_Angels_v2 WOODLAND_ACR 8357 2 hours, 19 minutes 8 1492799096 21st April 2017
LTPD_Zombie_Escape_Isla_1_v3 ISLADUALA3 718 11 minutes 8 1492798275 21st April 2017
LTJO_Forest_Funpark_v4 CHERNARUS 2766 46 minutes 25 1492194614 14th April 2017
LTPD_SAS_BADASSES_v4 NOE 831 13 minutes 19 1492193491 14th April 2017
LTPD_Island_Gauntlet_v2 TANOA 1495 24 minutes 12 1490991184 31st March 2017
LTPD_Hillside_Slide_v2 CLAFGHAN 232 3 minutes 12 1490990283 31st March 2017
LTPD_Propylon_Indices_v2 NAPFWINTER 917 15 minutes 12 1490989187 31st March 2017
LTPD_Passing_Through_v3 SARA 221 3 minutes 9 1490987529 31st March 2017
LTPD_HVT_Escort_Service_v3 ZARGABAD 1359 22 minutes 9 1490986063 31st March 2017
LTPD_Civil_Defence_v4 ZARGABAD 1349 22 minutes 9 1490984621 31st March 2017
LTPD_TownSweep_v7 CHERNARUS 1461 24 minutes 8 1490983128 31st March 2017
LTPD_Passing_Through_v3 SARA 2407 40 minutes 11 1490388050 24th March 2017
LTOP_Phantom_Riders_v2 ISLADUALA3 3862 1 hour, 4 minutes 12 1490384069 24th March 2017
LTPD_Midnight_Raid_v1 CLAFGHAN 1854 30 minutes 12 1490382082 24th March 2017
LTPD_Zombie_Escape_Isla_1_v3 ISLADUALA3 834 13 minutes 8 1489784354 17th March 2017
LTOP_The_Forgotten_Convoy_v3 ALTIS 239 3 minutes 9 1489780016 17th March 2017
LTPD_Fire_Run_v4 PROVINGGROUNDS_PMC 2043 34 minutes 9 1489777750 17th March 2017

Enter your Arma Player ID to filter your missions

Events that effect you in the playback will also be highlighted.

Save